INTELSAT 19 (IS-19) (38356 NORAD) Tracking and Keplerian Element Data

This shows tracking and keplerian element data for the satellite.

Feedback or suggestion? Click here.




ElementValue
Catalog38356
NameINTELSAT 19 (IS-19)
Epoch Orbit3307
Epoch Day261.90124617
Epoch Year2021
RAAN260.3228
Inclination0.0272
Eccentricity0.0003339
Argument of Perigee277.2199
Mean Anonmoly310.9409
Mean Motion1.00271792
Decay Rate-8E-07
L11 38356U 12030A 21261.90124617 -.00000080 00000-0 00000-0 0 9992
L22 38356 0.0272 260.3228 0003339 277.2199 310.9409 1.00271792 33074

Live tracking and technical data element details for INTELSAT 19 (IS-19) (NORAD 38356). INTELSAT 19 (IS-19) can be tracked NOW for your location showing map with azimuth and elevation plus other details from your city location.

Track the satellite on the map from your city or location and see movement details for azimuth, elevation, latitude, longitude, range, height, and movement on the map or in text.







IsCatalogInMostPopularTable: catalog: 38356, numindb: 547
Update: records affected: 1



GetName: 38356 INTELSAT 19 (IS-19)

Hit Count: updated at: Sun, 26 Sep 2021 00:18:25 GMT